Location: Unspecified
(49.9820°N, 20.4363°E)
Time: 22:49:33
(UTC+02:00)

Vanguard 1 Rocket - Visible Passes

Search period start: 15 May 2026 00:00
Search period end: 25 May 2026 00:00
Orbit: 655 x 4212 km, 34.3° (Epoch: 14 May)

Date Brightness Start Highest point End Pass type
(mag) Time Alt. Az. Time Alt. Az. Time Alt. Az.
15 May 11.2 22:00:02 10° W 22:14:35 26° SW 22:31:32 12° S visible
16 May 11.0 20:46:01 10° W 21:00:15 33° SSW 21:20:17 10° SSE visible
16 May 11.6 23:18:59 10° WSW 23:27:49 14° SW 23:37:33 10° SSW visible
17 May 11.4 22:01:17 10° WSW 22:13:54 21° SW 22:29:33 10° S visible
18 May 11.1 20:46:47 10° W 20:59:46 28° SSW 21:17:53 10° SSE visible
19 May 11.5 22:03:22 10° WSW 22:13:18 16° SW 22:25:12 10° S visible
20 May 11.2 20:47:54 10° WSW 20:59:22 23° SSW 21:14:55 10° S visible
21 May 11.6 22:07:54 10° WSW 22:12:47 11° SW 22:18:09 10° SSW visible
22 May 11.4 20:49:38 10° WSW 20:59:01 18° SW 21:11:09 10° S visible
24 May 11.5 20:52:52 10° WSW 20:58:45 13° SW 21:05:40 10° SSW visible
